Regional Weather Roundup
Issued by NWS

Home | Current Version | Previous Version | Graphics & Text | Print | Product List | Glossary On
Versions: 1 2 3 4 5 6 7 8 9 10 11 12 13 14 15 16 17 18 19 20 21 22 23 24 25 26 27 28 29 30 31 32 33 34 35 36 37 38 39 40 41 42 43 44 45 46 47 48 49 50
000
ASUS45 KBOU 272207
RWRCO

WEATHER ROUNDUP FOR COLORADO
NATIONAL WEATHER SERVICE DENVER/BOULDER CO
400 PM MDT WED AUG 27 2014

NOTE: "FAIR" INDICATES FEW OR NO CLOUDS BELOW 12000 FEET WITH NO
SIGNIFICANT WEATHER AND/OR OBSTRUCTIONS TO VISIBILITY.

COZ001>005-013-030-031-272300-
...NORTHWEST COLORADO...

CITY           SKY/WX    TMP DP  RH WIND       PRES   REMARKS
CRAIG          CLOUDY    56  50  80 N6        30.28S
HAYDEN         PTSUNNY   55  45  67 N9        30.28F
MEEKER         PTSUNNY   62  47  57 N7        30.26F
MOUNT WERNER   NOT AVBL
STEAMBOAT SPGS CLOUDY    56  46  69 W21G31    30.28R
WALDEN         MOSUNNY   59  37  44 SW7       30.31F
$$

COZ006>008-011-272300-
...WEST CENTRAL VALLEYS...

CITY           SKY/WX    TMP DP  RH WIND       PRES   REMARKS
GRAND JUNCTION PTSUNNY   70  52  52 CALM      30.20F
MONTROSE       CLOUDY    65  44  46 W15G21    30.27S
EAGLE          LGT RAIN  63  46  55 SW15G22   30.32R
RIFLE          PTSUNNY   64  51  62 E6        30.25S
DELTA          RAIN      69  51  51 W6        30.22F
NUCLA          TSTM      59  50  72 SE8       30.31S
$$

COZ017>023-064>068-272300-
...SOUTHWEST COLORADO...

CITY           SKY/WX    TMP DP  RH WIND       PRES   REMARKS
DURANGO        MOSUNNY   70  42  36 W15       30.29F
CORTEZ         PTSUNNY   71  47  42 S10       30.26F
PAGOSA SPRINGS LGT RAIN  67  41  39 W13       30.34F
TELLURIDE      RAIN      52  41  66 W3G9      30.44R
WOLF CREEK PAS CLOUDY    43  37  81 SW20G29   30.55F
$$

COZ009-010-012-014-032>034-037-058>063-272300-
...CENTRAL COLORADO...

CITY           SKY/WX    TMP DP  RH WIND       PRES   REMARKS
ASPEN          LGT RAIN  56  44  64 N10G21    30.34R
BUENA VISTA    MOSUNNY   70  31  23 W18G24    30.26F
COPPER MTN     CLOUDY    46  37  71 W5        30.54S THUNDER
BERTHOUD PASS  PTSUNNY   37  36  93 MISG      30.57F
COTTONWOOD PAS MOSUNNY   63  30  29 W9G25     30.40R
GUNNISON       MOSUNNY   63  37  39 SW16G22   30.33S
KREMMLING      LGT RAIN  59  41  51 W9G26     30.30R
LEADVILLE      PTSUNNY   49  38  65 NW17G29   30.41R
MONARCH PASS   CLOUDY    46  34  61 W25       30.64F
SALIDA         CLOUDY    70  43  37 SE7       30.32F
SUNLIGHT       CLOUDY    43  41  93 CALM      30.49R
WILKERSON PASS NOT AVBL
$$

COZ069>075-272300-
...SAN LUIS VALLEY/SANGRE DE CRISTO MOUNTAINS...

CITY           SKY/WX    TMP DP  RH WIND       PRES   REMARKS
ALAMOSA        MOSUNNY   73  31  21 SW14      30.27F
LA VETA PASS   NOT AVBL
SAGUACHE         N/A    N/A N/A N/A NW15      30.29F
$$

COZ035-036-038>040-272300-
...NORTHERN COLORADO FRONT RANGE...

CITY           SKY/WX    TMP DP  RH WIND       PRES   REMARKS
DENVER INTL AP MOSUNNY   75  53  46 CALM      30.09F
DMNS CITY PARK   N/A     75  52  44 W17       30.10S
AURORA         PTSUNNY   77  53  43 N6        30.12F
FRONT RANGE AP NOT AVBL
ERIE MUNI ARPT CLOUDY    70  51  52 NW18G24   30.10S THUNDER
BOULDER MUN AP TSTM      68  50  52 CALM      30.13R
CENTENNIAL     PTSUNNY   76  51  41 N9        30.12F
BROOMFIELD     CLOUDY    68  46  45 W22G30    30.14S
FORT COLLINS   PTSUNNY   70  54  56 W9        30.11S THUNDER
LONGMONT       CLOUDY    68  53  58 NE5       30.15R
$$

COZ041-046-047-076>085-087-088-272300-
...PIKES PEAK/PALMER DIVIDE AND SOUTHERN FOOTHILLS...

CITY           SKY/WX    TMP DP  RH WIND       PRES   REMARKS
COLO. SPRINGS  PTSUNNY   81  42  25 S9        30.13F
A. F. ACADEMY  MOSUNNY   75  45  34 VRB5      30.15F
ELLICOTT       MOSUNNY   78  46  32 S10G18    30.12F
FALCON         PTSUNNY   74  46  36 S3        30.19F
FORT CARSON    MOSUNNY   83  41  22 SW10      30.10F
LIMON          PTSUNNY   78  53  41 SE6       30.09F
MONUMENT HILL  PTSUNNY   68  50  52 NE6       30.19F
TRINIDAD       MOSUNNY   80  47  31 SE7       30.11F
$$

COZ042>045-048>051-090-091-272300-
...NORTHEAST COLORADO...

CITY           SKY/WX    TMP DP  RH WIND       PRES   REMARKS
GREELEY ARPT   MOSUNNY   75  55  50 N10       30.08F
AKRON          CLOUDY    76  59  55 S9        30.05F
BURLINGTON     PTSUNNY   79  64  60 S16G22    30.04F
WRAY             N/A     81  62  52 SE16      30.02F
STERLING       PTSUNNY   79  63  57 N16G22    30.02F
HOLYOKE        MOSUNNY   73  66  78 S9G17     30.05S
FORT MORGAN    PTSUNNY   76  56  48 N16       30.06F
$$

COZ086-089-092>099-272300-
...SOUTHEAST COLORADO...

CITY           SKY/WX    TMP DP  RH WIND       PRES   REMARKS
PUEBLO         MOSUNNY   87  48  25 SE12      30.01F
LA JUNTA       SUNNY     86  54  33 SE6       30.02F
LAMAR          SUNNY     87  58  37 SW9       29.98F
SPRINGFIELD      N/A     85  57  38 S16G24    30.04F
$$



USA.gov is the U.S. government's official web portal to all federal, state and local government web resources and services.